• In Uzbekistan
  • List of Countries
  • For 7 days
  • Water Temperature
  • Satellite Maps
  • Weather Map
  • Weather Widgets
  • user-avatar
    Login

    Hourly Weather Gagra

    Today, 20 August, Sunday

    Time Temperature Precipitation Wind Pressure Humidity
    00:00 +23°C° 0.2 mm 2 mps 733 mmHg 67%
    01:00 +23°C° 0.2 mm 2 mps 733 mmHg 68%
    02:00 +23°C° 0.2 mm 2 mps 733 mmHg 68%
    03:00 +21°C° 0 mm 2 mps 733 mmHg 73%
    04:00 +21°C° 0.1 mm 2 mps 733 mmHg 72%
    05:00 +21°C° 0.1 mm 2 mps 733 mmHg 70%
    06:00 +23°C° 0.1 mm 2 mps 733 mmHg 69%
    07:00 +26°C° 0.1 mm 2 mps 733 mmHg 62%
    08:00 +28°C° 0.1 mm 1 mps 733 mmHg 55%
    09:00 +31°C° 0.1 mm 1 mps 733 mmHg 48%
    10:00 +32°C° 0.3 mm 1 mps 733 mmHg 47%
    11:00 +33°C° 0.3 mm 1 mps 733 mmHg 45%
    12:00 +34°C° 0.3 mm 2 mps 733 mmHg 44%
    13:00 +34°C° 0.3 mm 2 mps 733 mmHg 46%
    14:00 +34°C° 0.3 mm 2 mps 733 mmHg 48%
    15:00 +34°C° 0.3 mm 2 mps 733 mmHg 50%
    16:00 +31°C° 0.5 mm 2 mps 733 mmHg 57%
    17:00 +30°C° 0.5 mm 2 mps 732 mmHg 64%
    18:00 +29°C° 0.5 mm 2 mps 732 mmHg 71%
    19:00 +28°C° 0 mm 2 mps 732 mmHg 72%
    20:00 +26°C° 0 mm 2 mps 732 mmHg 73%
    21:00 +25°C° 0 mm 2 mps 732 mmHg 74%
    22:00 +24°C° 0 mm 2 mps 732 mmHg 72%
    23:00 +24°C° 0 mm 2 mps 732 mmHg 69%

    Tomorrow, 21 August, Monday

    Time Temperature Precipitation Wind Pressure Humidity
    00:00 +24°C° 0 mm 1 mps 732 mmHg 67%
    01:00 +23°C° 0 mm 2 mps 732 mmHg 65%
    02:00 +23°C° 0 mm 2 mps 732 mmHg 62%
    03:00 +23°C° 0 mm 2 mps 731 mmHg 60%
    04:00 +23°C° 0 mm 2 mps 731 mmHg 58%
    05:00 +23°C° 0 mm 2 mps 731 mmHg 56%
    06:00 +23°C° 0 mm 2 mps 731 mmHg 54%
    07:00 +26°C° 0 mm 2 mps 731 mmHg 50%
    08:00 +29°C° 0 mm 1 mps 731 mmHg 45%
    09:00 +32°C° 0 mm 1 mps 731 mmHg 40%
    10:00 +33°C° 0 mm 1 mps 730 mmHg 38%
    11:00 +34°C° 0 mm 1 mps 730 mmHg 37%
    12:00 +35°C° 0 mm 1 mps 730 mmHg 35%
    13:00 +36°C° 0 mm 2 mps 729 mmHg 35%
    14:00 +36°C° 0 mm 2 mps 729 mmHg 36%
    15:00 +36°C° 0 mm 2 mps 728 mmHg 36%
    16:00 +35°C° 0 mm 3 mps 728 mmHg 44%
    17:00 +34°C° 0 mm 3 mps 728 mmHg 52%
    18:00 +31°C° 0 mm 3 mps 727 mmHg 60%
    19:00 +30°C° 0 mm 3 mps 727 mmHg 60%
    20:00 +28°C° 0 mm 3 mps 727 mmHg 61%
    21:00 +26°C° 0 mm 3 mps 727 mmHg 61%
    22:00 +26°C° 0 mm 3 mps 727 mmHg 52%
    23:00 +26°C° 0 mm 3 mps 727 mmHg 44%

    Day after tomorrow, 22 August, Tuesday

    Time Temperature Precipitation Wind Pressure Humidity
    00:00 +26°C° 0 mm 3 mps 727 mmHg 36%
    01:00 +26°C° 0 mm 3 mps 728 mmHg 33%
    02:00 +26°C° 0 mm 2 mps 728 mmHg 30%
    03:00 +26°C° 0 mm 2 mps 728 mmHg 27%
    04:00 +25°C° 0 mm 2 mps 728 mmHg 31%
    05:00 +25°C° 0 mm 2 mps 728 mmHg 34%
    06:00 +24°C° 0 mm 2 mps 728 mmHg 37%
    07:00 +27°C° 0 mm 3 mps 729 mmHg 37%
    08:00 +29°C° 0 mm 3 mps 729 mmHg 37%
    09:00 +31°C° 0 mm 3 mps 729 mmHg 37%
    10:00 +33°C° 0 mm 3 mps 730 mmHg 38%
    11:00 +34°C° 0 mm 3 mps 730 mmHg 39%
    12:00 +34°C° 0 mm 3 mps 730 mmHg 41%
    13:00 +34°C° 0.2 mm 3 mps 730 mmHg 45%
    14:00 +34°C° 0.2 mm 3 mps 730 mmHg 49%
    15:00 +34°C° 0.2 mm 3 mps 730 mmHg 53%
    16:00 +31°C° 0.4 mm 3 mps 730 mmHg 62%
    17:00 +30°C° 0.4 mm 3 mps 730 mmHg 70%
    18:00 +29°C° 0.4 mm 4 mps 730 mmHg 79%
    19:00 +27°C° 0.2 mm 3 mps 730 mmHg 82%
    20:00 +26°C° 0.2 mm 3 mps 731 mmHg 85%
    21:00 +24°C° 0.2 mm 3 mps 731 mmHg 88%
    22:00 +24°C° 0.1 mm 3 mps 731 mmHg 86%
    23:00 +22°C° 0.1 mm 3 mps 731 mmHg 84%

    23 August, Wednesday

    Time Temperature Precipitation Wind Pressure Humidity
    00:00 +22°C° 0.1 mm 3 mps 731 mmHg 81%
    01:00 +22°C° 0.1 mm 3 mps 731 mmHg 80%
    02:00 +21°C° 0.1 mm 3 mps 731 mmHg 78%
    03:00 +21°C° 0.1 mm 3 mps 731 mmHg 76%
    04:00 +21°C° 0.3 mm 3 mps 731 mmHg 77%
    05:00 +21°C° 0.3 mm 3 mps 731 mmHg 78%
    06:00 +21°C° 0.3 mm 3 mps 731 mmHg 79%
    07:00 +24°C° 0.8 mm 2 mps 732 mmHg 76%
    08:00 +26°C° 0.8 mm 2 mps 732 mmHg 72%
    09:00 +28°C° 0.8 mm 2 mps 732 mmHg 69%
    10:00 +28°C° 0.9 mm 2 mps 732 mmHg 73%
    11:00 +27°C° 0.9 mm 2 mps 733 mmHg 78%
    12:00 +27°C° 0.9 mm 3 mps 733 mmHg 83%
    13:00 +26°C° 1 mm 3 mps 733 mmHg 85%
    14:00 +25°C° 1 mm 4 mps 734 mmHg 88%
    15:00 +25°C° 1 mm 4 mps 734 mmHg 90%
    16:00 +25°C° 0.5 mm 4 mps 735 mmHg 90%
    17:00 +24°C° 0.5 mm 3 mps 735 mmHg 89%
    18:00 +24°C° 0.5 mm 3 mps 735 mmHg 88%
    19:00 +22°C° 0.1 mm 3 mps 736 mmHg 88%
    20:00 +21°C° 0.1 mm 3 mps 736 mmHg 88%
    21:00 +20°C° 0.1 mm 3 mps 736 mmHg 88%
    22:00 +20°C° 0 mm 3 mps 736 mmHg 87%
    23:00 +20°C° 0 mm 3 mps 737 mmHg 86%

    24 August, Thursday

    Time Temperature Precipitation Wind Pressure Humidity
    00:00 +19°C° 0 mm 3 mps 737 mmHg 86%
    01:00 +19°C° 0 mm 3 mps 737 mmHg 84%
    02:00 +19°C° 0 mm 3 mps 737 mmHg 83%
    03:00 +19°C° 0 mm 3 mps 736 mmHg 82%
    04:00 +19°C° 0 mm 3 mps 737 mmHg 82%
    05:00 +19°C° 0 mm 3 mps 737 mmHg 81%
    06:00 +19°C° 0 mm 3 mps 737 mmHg 80%
    07:00 +21°C° 0 mm 3 mps 737 mmHg 73%
    08:00 +25°C° 0 mm 2 mps 737 mmHg 66%
    09:00 +27°C° 0 mm 2 mps 737 mmHg 59%
    10:00 +28°C° 0 mm 3 mps 737 mmHg 57%
    11:00 +28°C° 0 mm 3 mps 737 mmHg 55%
    12:00 +29°C° 0 mm 3 mps 737 mmHg 53%
    13:00 +29°C° 0.1 mm 4 mps 737 mmHg 54%
    14:00 +29°C° 0.1 mm 4 mps 737 mmHg 54%
    15:00 +29°C° 0.1 mm 4 mps 737 mmHg 55%
    16:00 +28°C° 0 mm 4 mps 737 mmHg 60%
    17:00 +27°C° 0 mm 4 mps 738 mmHg 65%
    18:00 +26°C° 0 mm 4 mps 738 mmHg 70%
    19:00 +25°C° 0 mm 4 mps 738 mmHg 74%
    20:00 +22°C° 0 mm 3 mps 738 mmHg 78%
    21:00 +21°C° 0 mm 3 mps 738 mmHg 81%
    22:00 +21°C° 0 mm 3 mps 738 mmHg 82%
    23:00 +21°C° 0 mm 2 mps 738 mmHg 82%

    25 August, Friday

    Time Temperature Precipitation Wind Pressure Humidity
    00:00 +21°C° 0 mm 2 mps 738 mmHg 82%
    01:00 +20°C° 0 mm 2 mps 738 mmHg 82%
    02:00 +20°C° 0 mm 2 mps 738 mmHg 82%
    03:00 +20°C° 0 mm 2 mps 738 mmHg 82%
    04:00 +19°C° 0 mm 2 mps 738 mmHg 81%
    05:00 +19°C° 0 mm 2 mps 738 mmHg 80%
    06:00 +19°C° 0 mm 2 mps 738 mmHg 79%
    07:00 +23°C° 0 mm 2 mps 738 mmHg 72%
    08:00 +25°C° 0 mm 2 mps 738 mmHg 64%
    09:00 +28°C° 0 mm 2 mps 738 mmHg 56%
    10:00 +29°C° 0 mm 2 mps 738 mmHg 55%
    11:00 +29°C° 0 mm 2 mps 738 mmHg 54%
    12:00 +30°C° 0 mm 2 mps 738 mmHg 52%
    13:00 +30°C° 0 mm 2 mps 738 mmHg 56%
    14:00 +29°C° 0 mm 2 mps 738 mmHg 60%
    15:00 +29°C° 0 mm 2 mps 737 mmHg 63%
    16:00 +28°C° 0.1 mm 2 mps 737 mmHg 68%
    17:00 +27°C° 0.1 mm 2 mps 737 mmHg 74%
    18:00 +26°C° 0.1 mm 2 mps 737 mmHg 79%
    19:00 +25°C° 0 mm 2 mps 737 mmHg 81%
    20:00 +24°C° 0 mm 1 mps 737 mmHg 83%
    21:00 +23°C° 0 mm 1 mps 737 mmHg 86%
    22:00 +21°C° 0 mm 2 mps 737 mmHg 86%
    23:00 +21°C° 0 mm 2 mps 737 mmHg 85%
    Show more